GW0484 Weather Reports


Display with metric or nautical units.
time (UTC)temp
F
wind
direction
speed
MPH
gust
MPH
rain 1hr
in
rain 24hr
in
rain mn
in
humidity
%
barometer
mb
20260503203523 0 44 6.0 8.0 0.00 0.00 0.00 1005.7
20260503203020 0 357 4.0 9.0 0.00 0.00 0.00 1005.8
20260503202518 0 49 6.0 8.0 0.00 0.00 0.00 1006.0
20260503202016 0 321 13.0 15.0 0.00 0.00 0.00 1006.3
20260503201514 0 39 5.0 6.0 0.00 0.00 0.00 1006.1
20260503201010 0 312 17.0 22.0 0.00 0.00 0.00 1006.1
20260503200507 0 108 2.0 2.0 0.00 0.00 0.00 1006.0
20260503200004 0 318 11.0 14.0 0.00 0.00 0.00 1005.9
20260503195501 0 253 16.0 20.0 0.00 0.00 0.00 1006.0
20260503194957 0 259 10.0 11.0 0.00 0.00 0.00 1006.3
20260503194455 0 284 20.0 24.0 0.00 0.00 0.00 1006.1
20260503193949 0 271 9.0 10.0 0.00 0.00 0.00 1006.5
20260503193445 0 310 14.0 17.0 0.00 0.00 0.00 1006.3
20260503192941 0 245 7.0 8.0 0.00 0.00 0.00 1006.5
20260503192437 0 255 11.0 13.0 0.00 0.00 0.00 1006.6
20260503191933 0 282 10.0 11.0 0.00 0.00 0.00 1006.5
20260503191431 0 326 8.0 9.0 0.00 0.00 0.00 1006.7
20260503190927 0 293 7.0 13.0 0.00 0.00 0.00 1006.9
20260503190425 0 289 9.0 11.0 0.00 0.00 0.00 1006.8
20260503185921 0 287 10.0 11.0 0.00 0.00 0.00 1006.8
20260503185418 0 312 13.0 17.0 0.00 0.00 0.00 1006.9
20260503184917 0 285 17.0 22.0 0.00 0.00 0.00 1006.7
20260503184414 0 344 4.0 7.0 0.00 0.00 0.00 1006.9
20260503183910 0 300 13.0 17.0 0.00 0.00 0.00 1006.9
20260503183407 0 315 4.0 6.0 0.00 0.00 0.00 1007.0
20260503182904 0 314 13.0 14.0 0.00 0.00 0.00 1007.3
20260503182403 0 238 11.0 15.0 0.00 0.00 0.00 1007.5
20260503181900 0 344 11.0 15.0 0.00 0.00 0.00 1007.6
20260503181356 0 321 16.0 18.0 0.00 0.00 0.00 1007.5
20260503180853 0 271 15.0 17.0 0.00 0.00 0.00 1007.7
20260503180351 0 290 8.0 11.0 0.00 0.00 0.00 1007.8
20260503175847 0 316 15.0 18.0 0.00 0.00 0.00 1007.6
20260503175345 0 304 6.0 7.0 0.00 0.00 0.00 1007.6
20260503174841 0 289 9.0 9.0 0.00 0.00 0.00 1008.0
20260503174339 0 356 3.0 5.0 0.00 0.00 0.00 1007.9
20260503173834 0 253 3.0 5.0 0.00 0.00 0.00 1007.9
20260503173331 0 279 6.0 7.0 0.00 0.00 0.00 1007.9
20260503172827 0 262 7.0 7.0 0.00 0.00 0.00 1008.1
20260503172325 0 314 5.0 7.0 0.00 0.00 0.00 1008.2
20260503171821 0 295 9.0 10.0 0.00 0.00 0.00 1008.3
20260503171318 0 305 6.0 7.0 0.00 0.00 0.00 1008.0
20260503170815 0 280 7.0 10.0 0.00 0.00 0.00 1008.2
20260503170312 0 304 13.0 14.0 0.00 0.00 0.00 1008.3
20260503150704 0 291 8.0 9.0 0.00 0.00 0.00 1009.2
20260503150200 0 311 6.0 7.0 0.00 0.00 0.00 1009.4
20260503140124 0 307 2.0 2.0 0.00 0.00 0.00 1009.8
20260503131054 0 114 0.0 0.0 0.00 0.00 0.00 1009.8
20260503130551 0 111 0.0 0.0 0.00 0.00 0.00 1009.5
20260503110442 0 83 0.0 0.0 0.00 0.00 0.00 1010.5
20260503090333 0 111 0.0 0.0 0.00 0.00 0.00 1011.1
20260503081300 0 105 0.0 0.0 0.00 0.00 0.00 1011.4
20260503080756 0 108 0.0 0.0 0.00 0.00 0.00 1011.2
20260503080254 0 104 0.0 0.0 0.00 0.00 0.00 1011.4
20260503072730 0 98 0.0 1.0 0.00 0.00 0.00 1011.3
20260503072227 0 97 0.0 1.0 0.00 0.00 0.00 1011.2
20260503071723 0 107 0.0 0.0 0.00 0.00 0.00 1011.4
20260503071220 0 107 0.0 0.0 0.00 0.00 0.00 1011.3
20260503070717 0 107 1.0 1.0 0.00 0.00 0.00 1011.5
20260503070215 0 89 2.0 2.0 0.00 0.00 0.00 1011.6
20260503060139 0 139 2.0 2.0 0.00 0.00 0.00 1011.5
20260503054626 0 170 2.0 2.0 0.00 0.00 0.00 1011.7
20260503054123 0 237 5.0 6.0 0.00 0.00 0.00 1011.7
20260503053622 0 165 1.0 2.0 0.00 0.00 0.00 1011.6
20260503053120 0 178 2.0 2.0 0.00 0.00 0.00 1011.8
20260503052616 0 198 3.0 3.0 0.00 0.00 0.00 1011.6
20260503052112 0 187 2.0 3.0 0.00 0.00 0.00 1011.7
20260503051608 0 134 0.0 0.0 0.00 0.00 0.00 1011.8
20260503051106 0 147 1.0 1.0 0.00 0.00 0.00 1011.7
20260503050602 0 176 2.0 2.0 0.00 0.00 0.00 1011.7
20260503050059 0 170 5.0 6.0 0.00 0.00 0.00 1011.8
20260503045556 0 141 0.0 0.0 0.00 0.00 0.00 1011.8
20260503045053 0 131 0.0 0.0 0.00 0.00 0.00 1011.9
20260503044549 0 143 0.0 0.0 0.00 0.00 0.00 1011.6
20260503044047 0 238 4.0 5.0 0.00 0.00 0.00 1011.8
20260503043543 0 133 0.0 0.0 0.00 0.00 0.00 1011.8
20260503043040 0 133 0.0 0.0 0.00 0.00 0.00 1011.7
20260503042537 0 134 0.0 1.0 0.00 0.00 0.00 1011.8
20260503042033 0 299 2.0 2.0 0.00 0.00 0.00 1011.8
20260503041530 0 128 2.0 2.0 0.00 0.00 0.00 1011.8
20260503041028 0 153 6.0 8.0 0.00 0.00 0.00 1011.8
20260503040525 0 184 3.0 3.0 0.00 0.00 0.00 1011.5
20260503040022 0 306 10.0 13.0 0.00 0.00 0.00 1012.5
20260503035519 0 263 12.0 15.0 0.00 0.00 0.00 1012.5
20260503035017 0 266 14.0 17.0 0.00 0.00 0.00 1012.6
20260503034514 0 303 14.0 16.0 0.00 0.00 0.00 1012.6
20260503034010 0 71 1.0 1.0 0.00 0.00 0.00 1012.2
20260503033508 0 59 1.0 2.0 0.00 0.00 0.00 1011.9
20260503033006 0 85 0.0 1.0 0.00 0.00 0.00 1011.8
20260503032504 0 94 2.0 3.0 0.00 0.00 0.00 1011.6
20260503032002 0 108 0.0 0.0 0.00 0.00 0.00 1011.3
20260503031459 0 115 0.0 0.0 0.00 0.00 0.00 1011.5
20260503030955 0 100 1.0 1.0 0.00 0.00 0.00 1011.3
20260503030452 0 106 0.0 0.0 0.00 0.00 0.00 1011.3
20260503025949 0 108 0.0 0.0 0.00 0.00 0.00 1011.2
20260503025446 0 108 0.0 0.0 0.00 0.00 0.00 1011.0
20260503024943 0 108 0.0 0.0 0.00 0.00 0.00 1011.1
20260503024440 0 113 0.0 0.0 0.00 0.00 0.00 1011.0
20260503023937 0 119 0.0 0.0 0.00 0.00 0.00 1011.0
20260503023434 0 119 0.0 0.0 0.00 0.00 0.00 1011.0
20260503022931 0 119 0.0 0.0 0.00 0.00 0.00 1010.6
20260503022426 0 119 0.0 0.0 0.00 0.00 0.00 1010.8
20260503021922 0 119 0.0 0.0 0.00 0.00 0.00 1010.8
20260503021418 0 109 0.0 1.0 0.00 0.00 0.00 1011.0
20260503020916 0 127 0.0 0.0 0.00 0.00 0.00 1011.0
20260503020414 0 128 0.0 1.0 0.00 0.00 0.00 1011.0
20260503015909 0 129 1.0 1.0 0.00 0.00 0.00 1011.1
20260503015407 0 117 1.0 2.0 0.00 0.00 0.00 1011.0
20260503014902 0 107 1.0 2.0 0.00 0.00 0.00 1010.8
20260503014400 0 105 1.0 1.0 0.00 0.00 0.00 1011.0
20260503013858 0 109 3.0 3.0 0.00 0.00 0.00 1011.0
20260503013354 0 90 2.0 2.0 0.00 0.00 0.00 1011.1
20260503012851 0 84 4.0 6.0 0.00 0.00 0.00 1011.1
20260503012349 0 66 4.0 5.0 0.00 0.00 0.00 1011.0
20260503011846 0 88 3.0 5.0 0.00 0.00 0.00 1011.0
20260503011343 0 83 0.0 0.0 0.00 0.00 0.00 1010.7
20260503010839 0 42 1.0 2.0 0.00 0.00 0.00 1011.1
20260503010336 0 116 0.0 0.0 0.00 0.00 0.00 1011.3
20260503005833 0 148 0.0 0.0 0.00 0.00 0.00 1011.5
20260503005331 0 128 0.0 0.0 0.00 0.00 0.00 1011.2
20260503004826 0 111 0.0 0.0 0.00 0.00 0.00 1011.5
20260503004325 0 107 0.0 0.0 0.00 0.00 0.00 1011.2
20260503003822 0 88 2.0 2.0 0.00 0.00 0.00 1011.5
20260503003318 0 96 3.0 3.0 0.00 0.00 0.00 1011.5
20260503002815 0 79 3.0 3.0 0.00 0.00 0.00 1011.6
20260503002313 0 93 0.0 1.0 0.00 0.00 0.00 1011.7
20260503001809 0 90 0.0 0.0 0.00 0.00 0.00 1011.7
20260503001305 0 106 0.0 0.0 0.00 0.00 0.00 1011.6
20260503000803 0 99 0.0 1.0 0.00 0.00 0.00 1011.7
20260503000300 0 99 0.0 0.0 0.00 0.00 0.00 1011.8
20260502235757 0 96 0.0 0.0 0.00 0.00 0.00 1011.8
20260502235255 0 14 4.0 5.0 0.00 0.00 0.00 1011.7
20260502234751 0 53 5.0 6.0 0.00 0.00 0.00 1011.7
20260502234248 0 79 3.0 3.0 0.00 0.00 0.00 1011.6
20260502233744 0 149 0.0 0.0 0.00 0.00 0.00 1011.7
20260502233241 0 132 0.0 1.0 0.00 0.00 0.00 1012.2
20260502232737 0 207 4.0 6.0 0.00 0.00 0.00 1012.2
20260502232234 0 81 1.0 2.0 0.00 0.00 0.00 1012.0
20260502231730 0 76 0.0 0.0 0.00 0.00 0.00 1012.3
20260502231228 0 10 2.0 3.0 0.00 0.00 0.00 1012.2
20260502230727 0 20 5.0 6.0 0.00 0.00 0.00 1012.4
20260502230225 0 90 1.0 2.0 0.00 0.00 0.00 1012.5
20260502225720 0 93 0.0 0.0 0.00 0.00 0.00 1012.4
20260502225218 0 87 0.0 0.0 0.00 0.00 0.00 1012.5
20260502224714 0 39 0.0 0.0 0.00 0.00 0.00 1012.5
20260502224211 0 100 0.0 0.0 0.00 0.00 0.00 1012.6
20260502223708 0 20 7.0 8.0 0.00 0.00 0.00 1012.7
20260502223206 0 83 5.0 6.0 0.00 0.00 0.00 1012.7
20260502222704 0 27 2.0 2.0 0.00 0.00 0.00 1012.9
20260502222200 0 297 3.0 3.0 0.00 0.00 0.00 1012.9
20260502221656 0 131 0.0 0.0 0.00 0.00 0.00 1013.0
20260502221153 0 183 3.0 3.0 0.00 0.00 0.00 1012.8
20260502220649 0 89 1.0 1.0 0.00 0.00 0.00 1012.9
20260502220145 0 305 6.0 8.0 0.00 0.00 0.00 1013.4
20260502215643 0 284 3.0 6.0 0.00 0.00 0.00 1013.1
20260502215139 0 119 1.0 1.0 0.00 0.00 0.00 1013.2
20260502214637 0 68 2.0 3.0 0.00 0.00 0.00 1013.5
20260502214134 0 116 0.0 0.0 0.00 0.00 0.00 1013.5
20260502213631 0 77 0.0 1.0 0.00 0.00 0.00 1013.6
20260502213128 0 304 5.0 6.0 0.00 0.00 0.00 1013.6
20260502212627 0 181 4.0 5.0 0.00 0.00 0.00 1013.5
20260502212125 0 237 1.0 2.0 0.00 0.00 0.00 1013.8
20260502211620 0 52 2.0 2.0 0.00 0.00 0.00 1014.0
20260502211118 0 232 0.0 0.0 0.00 0.00 0.00 1013.9
20260502210615 0 8 1.0 2.0 0.00 0.00 0.00 1014.1
20260502210112 0 256 5.0 6.0 0.00 0.00 0.00 1014.0
20260502205608 0 5 3.0 3.0 0.00 0.00 0.00 1014.1
20260502205106 0 141 0.0 2.0 0.00 0.00 0.00 1014.1
20260502204602 0 119 5.0 7.0 0.00 0.00 0.00 1014.1
20260502204100 0 270 3.0 5.0 0.00 0.00 0.00 1014.1